DELTA 2 R/B

Satellite information

Favourite Embed

Satellite Type and Status

ROCKET BODYIN ORBIT

Key statistics

Satellite DELTA 2 R/B at a glance.

Uptime

12802

Days in orbit

Revolutions

≈ 14.6

Per day

Orbit

LEO

Low Earth Orbit

Inclination

24.8

Latest

Satellite identification and parameters

Extended collection of information and parameters for DELTA 2 R/B.

Object identification

Identified? True

Debris? False

Object name: DELTA 2 R/B

International designator: 1990-074B

Object number (NORAD): 20763

Object ID (CCSDS): 20763

Country: UNITED STATES OF AMERICA (US)

Current information (Y/N): Y

RCS size: LARGE

Orbital parameters

Period: 98.556 minutes

Inclination: 24.7628 deg

SMA: 7067.773 km

Apoapsis: 928.738 km

Periapsis: 450.537 km

RAAN: 318.9232 deg

Eccentricy: 0.03382962

Argument of periapsis: 281.2036 deg

Mean anomaly: 75.0632 deg

Mean motion: 14.61096556 rev/day

Mean motion (dot): 0.00012018 rev/day2

B* drag term: 0.0010113666 1/REarth

Two-line elements (TLE)

Creation date: Sept. 3, 2025, 10:15 a.m.

Reference frame: TEME

Reference center: EARTH

Epoch: Sept. 3, 2025, 6:51 a.m. UTC

TLE line 0: 0 DELTA 2 R/B

TLE line 1: 1 20763U 90074B 25246.28559203 .00012018 00000-0 10114-2 0 9992

TLE line 2: 2 20763 24.7628 318.9232 0338296 281.2036 75.0632 14.61096556835945

Live tracking on map

Real-time ground track for satellite DELTA 2 R/B.

In-orbit conjunctions

A list of the most updated potential collisions computed for object DELTA 2 R/B.

Target Orbit TCA Probability of collision Miss distance Type
COSMOS 2251 DEB LEO 2025-03-22 08:06:46 0.0001003022 837.0 (m) DEBRIS
GGSE 4 LEO 2025-03-15 23:08:24 0.0003012497 21.0 (m) PAYLOAD
CZ-6A DEB LEO 2024-10-19 05:33:28 0.0005298297 178.0 (m) DEBRIS

Associated space launch

British geostationary communications satellite

DELTA 2 R/B was lifted into orbit during the mission ‘Delta 6925 | Marcopolo 2’, on board a Delta 6925 space rocket.

The launch took place on Aug. 18, 1990, 12:42 a.m. from Space Launch Complex 17B.

For more information about the launch, click the button.

Launch to space Delta 6925 | Marcopolo 2
Delta 6925 | Marcopolo 2

Agency: N/A

Status: Launch Successful

Launch date: Aug. 18, 1990, 12:42 a.m. UTC

Rocket: Delta 6925

Launch pad: Space Launch Complex 17B

Location: Cape Canaveral SFS, FL, USA

...

Latest news about this satellite

There are no fresh news available about this satellite. Check back as we update our databases every day.


Newsletter sign-up

Weekly statistics, charts and insights to help you stay on top of the space industry.